Regional Weather Roundup
Issued by NWS Albany, NY

Home | Current Version | Previous Version | Graphics & Text | Print | Product List | Glossary On
Versions: 1 2 3 4 5 6 7 8 9 10 11 12 13 14 15 16 17 18 19 20 21 22 23 24 25 26 27 28 29 30 31 32 33 34 35 36 37 38 39 40 41 42 43 44 45 46 47 48 49 50
000
ASUS41 KALY 270810
RWRALY

NEW YORK STATE HOURLY WEATHER ROUNDUP
NATIONAL WEATHER SERVICE ALBANY NY
400 AM EDT WED AUG 27 2014

NOTE: "FAIR" INDICATES FEW OR NO CLOUDS BELOW 12,000 FEET WITH NO
SIGNIFICANT WEATHER AND/OR NO OBSTRUCTIONS TO VISIBILITY.

NYZ032-033-038>043-046>054-057>066-NYZ062>081-270900-
EAST


CITY           SKY/WX    TMP DP  RH WIND       PRES   REMARKS
ALBANY         MOCLDY    69  62  78 S7        29.99F
GLENS FALLS    PTCLDY    62  59  90 CALM      29.97F
POUGHKEEPSIE   CLEAR     63  61  93 CALM      30.02F
NEWBURGH       CLEAR     66  63  88 W5        30.05F
MONTGOMERY     CLEAR     63  61  93 W3        30.03F
WHITE PLAINS   CLEAR     65  59  81 NW5       30.04F
ISLIP          CLEAR     64  60  87 CALM      30.02F
NEW YORK CITY  CLEAR     74  63  68 W7        30.03F
CENTRAL PARK   CLEAR     71  61  70 W5        30.07S
$$

NYZ005>009-017-018-044>046-055-056-270900-
CENTRAL


CITY           SKY/WX    TMP DP  RH WIND       PRES   REMARKS
FULTON         MOCLDY    71  62  73 SW5       29.99R
SYRACUSE       MOCLDY    74  63  68 CALM      29.98S
ROME           MOCLDY    67  61  81 CALM      30.00F
ELMIRA         CLOUDY    63  61  93 CALM      30.05S
BINGHAMTON     MOCLDY    67  59  75 SW8       30.07R
MONTICELLO     CLEAR     57  55  94 N3        30.08F
$$

NYZ026>034-041>043-270900-
NORTH


CITY           SKY/WX    TMP DP  RH WIND       PRES   REMARKS
WATERTOWN      MOCLDY    73  65  75 SW7       29.97R
FORT DRUM      NOT AVBL
MASSENA        PTCLDY    70  64  81 SW5       29.93R
SARANAC LAKE   LGT RAIN  67  59  75 SW9       29.98S
PLATTSBURGH    PTCLDY    69  62  78 CALM      29.91S
$$

NYZ001>004-010>016-019>021-270900-
WEST


CITY           SKY/WX    TMP DP  RH WIND       PRES   REMARKS
NIAGARA FALLS  CLOUDY    70  66  87 N8        30.02R
BUFFALO        CLOUDY    73  68  84 W9        30.02R
DUNKIRK        MOCLDY    73  68  84 SW9       30.04S
JAMESTOWN      PTCLDY    66  64  94 SW7       30.09S
WELLSVILLE     CLOUDY    65  61  87 W8        30.11S
ROCHESTER      CLOUDY    73  69  87 W5        30.01R
PENN YAN       CLOUDY    70  62  76 SW10      30.03S
$$

             KEY
       WCI = WIND CHILL INDEX
       VSB = VISIBILITY
       HX  = HEAT INDEX
$$


USA.gov is the U.S. government's official web portal to all federal, state and local government web resources and services.